Tracking 25378 objects as of 22-Jan-2022
HD Live streaming from Space Station
objects crossing your sky now

STARLINK-2220

Track STARLINK-2220 now!
10-day predictions
STARLINK-2220 is classified as:


NORAD ID: 48570
Int'l Code: 2021-041T
Perigee: 553.6 km
Apogee: 555.1 km
Inclination: 53.1 °
Period: 95.6 minutes
Semi major axis: 6925 km
RCS: Unknown
Launch date: May 15, 2021
Source: United States (US)
Launch site: AIR FORCE EASTERN TEST RANGE (AFETR)
aabbcc
Your satellite tracking list
Your tracking list is empty




NASA's NSSDC Master Catalog

Two Line Element Set (TLE):
1 48570U 21041T   22021.55358110 -.00001306  00000-0 -68781-4 0  9993
2 48570  53.0541  71.8984 0001135  76.6434 283.4682 15.06397817 38147
Source of the keplerian elements: AFSPC